Cortez, CO

11:47 AM MDT on April 21, 2018 (GMT -0600)
Cortez Municipal

Weather History for KCEZ - April, 2014

Change the Weather History Date:

Saturday, April 5, 2014

  Actual Average Record
Temperature  
Mean Temperature 42 °F 44 °F  
Max Temperature 58 °F 61 °F 73 °F (2002)
Min Temperature 25 °F 27 °F 19 °F (2017)
Degree Days  
Heating Degree Days 23 21  
Month to date heating degree days 117 107  
Since 1 July heating degree days 5451 5637  
Cooling Degree Days 0 0  
Month to date cooling degree days 0 0  
Year to date cooling degree days 0 0  
Moisture  
Dew Point 20 °F    
Average Humidity 48    
Maximum Humidity 85    
Minimum Humidity 11    
Precipitation  
Precipitation 0.00 in 0.03 in 0.16 in (2006)
Month to date precipitation 0.29 0.18  
Year to date precipitation 1.36 3.26  
Sea Level Pressure  
Sea Level Pressure 29.81 in    
Wind  
Wind Speed 7 mph (WSW)    
Max Wind Speed 22 mph    
Max Gust Speed 27 mph    
Visibility 10 miles    
Events      
T = Trace of Precipitation, MM = Missing Value Source: NWS Daily Summary

Daily Weather History Graph

Daily Weather History Graph

Search for Another Location

Airport or City:

Astronomy

Apr. 05, 2014 Rise Set
Actual Time 6:54 AM MDT 7:40 PM MDT
Civil Twilight 6:27 AM MDT 8:07 PM MDT
Nautical Twilight 5:56 AM MDT 8:38 PM MDT
Astronomical Twilight 5:24 AM MDT 9:10 PM MDT
Moon 11:09 AM MDT (4/5) 12:48 AM MDT (4/5)
Length of Visible Light 13h 39m
Length of Day
12h 46m
Waxing Crescent, 35% of the Moon is Illuminated
Apr 5
Waxing Crescent
Apr 7
First Quarter
Apr 15
Full
Apr 22
Last Quarter
Apr 29
New

Hourly Weather History & Observations

Time (MDT) Temp. Windchill Dew Point Humidity Pressure Visibility Wind Dir Wind Speed Gust Speed Precip Events Conditions
12:53 AM 33.1 °F - 26.1 °F 75% 29.84 in 10.0 mi Calm Calm - N/A   Clear
1:53 AM 32.0 °F - 25.0 °F 75% 29.83 in 10.0 mi Calm Calm - N/A   Clear
2:53 AM 30.0 °F - 24.1 °F 79% 29.81 in 10.0 mi Calm Calm - N/A   Clear
3:53 AM 27.0 °F 20.5 °F 23.0 °F 85% 29.79 in 10.0 mi East 5.8 mph - N/A   Clear
4:53 AM 27.0 °F - 23.0 °F 85% 29.79 in 10.0 mi Calm Calm - N/A   Clear
5:53 AM 26.1 °F 20.5 °F 21.9 °F 84% 29.78 in 10.0 mi East 4.6 mph - N/A   Clear
6:53 AM 28.9 °F - 24.1 °F 82% 29.78 in 10.0 mi Calm Calm - N/A   Mostly Cloudy
7:53 AM 28.0 °F 24.2 °F 25.0 °F 88% 29.82 in 10.0 mi West 3.5 mph - N/A   Scattered Clouds
8:53 AM 34.0 °F - 27.0 °F 75% 29.83 in 10.0 mi North - - N/A   Scattered Clouds
9:53 AM 43.0 °F 38.8 °F 27.0 °F 53% 29.81 in 10.0 mi ENE 6.9 mph - N/A   Mostly Cloudy
10:53 AM 50.0 °F - 18.0 °F 28% 29.78 in 10.0 mi Variable 3.5 mph - N/A   Clear
11:48 AM 53.6 °F - 19.4 °F 26% 29.87 in 10.0 mi South 13.8 mph - N/A   Clear
11:53 AM 53.1 °F - 19.0 °F 26% 29.78 in 10.0 mi South 15.0 mph - N/A   Clear
12:53 PM 55.0 °F - 18.0 °F 23% 29.77 in 10.0 mi SW 16.1 mph 20.7 mph N/A   Clear
1:53 PM 55.9 °F - 14.0 °F 19% 29.76 in 10.0 mi WSW 13.8 mph 21.9 mph N/A   Clear
2:53 PM 55.0 °F - 8.1 °F 15% 29.75 in 10.0 mi SW 10.4 mph 18.4 mph N/A   Clear
3:53 PM 55.9 °F - 9.0 °F 15% 29.75 in 10.0 mi SW 15.0 mph 21.9 mph N/A   Partly Cloudy
4:53 PM 57.0 °F - 3.0 °F 11% 29.74 in 10.0 mi WNW 10.4 mph - N/A   Clear
5:53 PM 54.0 °F - 3.9 °F 13% 29.77 in 10.0 mi NW 4.6 mph - N/A   Clear
6:53 PM 51.1 °F - 16.0 °F 25% 29.79 in 10.0 mi NW 11.5 mph 21.9 mph N/A   Clear
7:53 PM 46.9 °F - 21.9 °F 37% 29.83 in 10.0 mi North 9.2 mph - N/A   Clear
8:53 PM 41.0 °F - 24.1 °F 51% 29.86 in 10.0 mi Calm Calm - N/A   Clear
9:53 PM 37.0 °F 32.4 °F 24.1 °F 59% 29.88 in 10.0 mi Variable 5.8 mph - N/A   Scattered Clouds
10:53 PM 33.1 °F - 24.1 °F 70% 29.87 in 10.0 mi Calm Calm - N/A   Partly Cloudy
11:53 PM 30.9 °F 25.2 °F 23.0 °F 72% 29.87 in 10.0 mi ENE 5.8 mph - N/A   Clear